UAL81 KEWR-EGCC

Flight info

Callsign UAL81
Flight time N/A
Altitude 35000
Route MERIT DCT HFD DCT PUT DCT BOS DCT TUSKY N355C JOOPY DCT 4950N DCT 5140N DCT 5330N DCT 5520N DCT RESNO DCT NETKI DCT BOFUM Q37 MALUD
Aircraft B752/M-SDE2E3FGHIJ3J4J7RWXY/LB1

Departure

Time 2026-04-26 10:51
Airport Newark Liberty International Airport (KEWR)

Arrival

Time N/A
Airport Manchester Airport (EGCC)
Time Latitude Longitude Altitude Speed Heading
2026-04-26 10:21 40.68813 -74.17601 14 ft 0 kts 266°
2026-04-26 10:40 40.68814 -74.17590 14 ft 2 kts 266°
2026-04-26 10:41 40.68815 -74.17571 14 ft 2 kts 266°
2026-04-26 10:41 40.68816 -74.17558 14 ft 1 kts 266°
2026-04-26 10:41 40.68820 -74.17540 14 ft 2 kts 228°
2026-04-26 10:41 40.68832 -74.17529 14 ft 2 kts 196°
2026-04-26 10:42 40.68847 -74.17528 14 ft 2 kts 163°
2026-04-26 10:42 40.68860 -74.17538 14 ft 2 kts 130°
2026-04-26 10:42 40.68864 -74.17546 14 ft 1 kts 111°
2026-04-26 10:42 40.68866 -74.17552 14 ft 0 kts 115°
2026-04-26 10:45 40.68857 -74.17527 14 ft 7 kts 116°
2026-04-26 10:45 40.68829 -74.17454 14 ft 9 kts 116°
2026-04-26 10:46 40.68804 -74.17384 14 ft 7 kts 116°
2026-04-26 10:46 40.68774 -74.17341 14 ft 6 kts 172°
2026-04-26 10:46 40.68715 -74.17366 14 ft 11 kts 204°
2026-04-26 10:46 40.68630 -74.17416 14 ft 14 kts 207°
2026-04-26 10:47 40.68545 -74.17470 14 ft 12 kts 206°
2026-04-26 10:47 40.68464 -74.17521 14 ft 14 kts 204°
2026-04-26 10:47 40.68356 -74.17587 14 ft 19 kts 207°
2026-04-26 10:47 40.68235 -74.17666 14 ft 18 kts 206°
2026-04-26 10:48 40.68119 -74.17738 14 ft 17 kts 205°
2026-04-26 10:48 40.68015 -74.17805 14 ft 16 kts 207°
2026-04-26 10:48 40.67920 -74.17867 14 ft 14 kts 206°
2026-04-26 10:48 40.67831 -74.17924 14 ft 13 kts 205°
2026-04-26 10:49 40.67739 -74.17981 14 ft 15 kts 205°
2026-04-26 10:49 40.67645 -74.18038 14 ft 14 kts 197°
2026-04-26 10:49 40.67576 -74.17986 14 ft 11 kts 116°
2026-04-26 10:49 40.67597 -74.17911 14 ft 9 kts 26°
2026-04-26 10:50 40.67605 -74.17907 14 ft 0 kts 25°
2026-04-26 10:50 40.67609 -74.17904 14 ft 2 kts 24°
2026-04-26 10:50 40.67668 -74.17867 14 ft 21 kts 25°
2026-04-26 10:50 40.68021 -74.17645 14 ft 91 kts 27°
2026-04-26 10:51 40.68813 -74.17139 15 ft 158 kts 26°
2026-04-26 10:51 40.71133 -74.15634 1265 ft 196 kts 35°
2026-04-26 10:51 40.72062 -74.14529 2290 ft 182 kts 47°
2026-04-26 10:52 40.73022 -74.13299 2687 ft 201 kts 43°
2026-04-26 10:52 40.74060 -74.12094 3430 ft 202 kts 41°
2026-04-26 10:52 40.75195 -74.10808 3801 ft 224 kts 47°
2026-04-26 10:52 40.76054 -74.09049 4249 ft 241 kts 63°
2026-04-26 10:53 40.76912 -74.07069 4801 ft 254 kts 55°
2026-04-26 10:53 40.77934 -74.05159 5566 ft 259 kts 53°
2026-04-26 10:53 40.79043 -74.03262 6278 ft 265 kts 50°
2026-04-26 10:54 40.81432 -73.99481 7765 ft 272 kts 48°
2026-04-26 10:54 40.82673 -73.97584 8467 ft 277 kts 47°
2026-04-26 10:54 40.83945 -73.95664 9136 ft 281 kts 47°
2026-04-26 10:54 40.85243 -73.93715 9820 ft 285 kts 46°
2026-04-26 10:55 40.86554 -73.91752 10393 ft 292 kts 46°
2026-04-26 10:55 40.87948 -73.89672 10618 ft 312 kts 46°
2026-04-26 10:55 40.89431 -73.87459 10866 ft 331 kts 46°
2026-04-26 10:55 40.90471 -73.85906 11018 ft 343 kts 46°
2026-04-26 10:56 40.92645 -73.82657 11284 ft 366 kts 46°
2026-04-26 10:56 40.94338 -73.80122 11842 ft 371 kts 46°
2026-04-26 10:56 40.96047 -73.77562 12403 ft 375 kts 46°
2026-04-26 10:56 40.97775 -73.74972 12987 ft 379 kts 46°
2026-04-26 10:57 40.99529 -73.72343 13541 ft 383 kts 46°
2026-04-26 10:57 41.01286 -73.69705 14079 ft 387 kts 46°
2026-04-26 10:57 41.03081 -73.67008 14651 ft 391 kts 46°
2026-04-26 10:57 41.04862 -73.64327 15576 ft 383 kts 45°
2026-04-26 10:58 41.06615 -73.61688 16094 ft 389 kts 45°
2026-04-26 10:58 41.08441 -73.58943 16216 ft 404 kts 45°
2026-04-26 10:58 41.10300 -73.56140 16817 ft 405 kts 45°
2026-04-26 10:58 41.12180 -73.53304 17241 ft 412 kts 46°
2026-04-26 10:59 41.14069 -73.50449 17750 ft 415 kts 46°
2026-04-26 10:59 41.15980 -73.47561 18175 ft 420 kts 46°
2026-04-26 10:59 41.17896 -73.44660 18716 ft 422 kts 45°
2026-04-26 10:59 41.19832 -73.41727 19158 ft 426 kts 45°
2026-04-26 11:00 41.21125 -73.39768 19489 ft 427 kts 45°
2026-04-26 11:00 41.23754 -73.35780 19975 ft 435 kts 46°
2026-04-26 11:00 41.25769 -73.32716 20509 ft 436 kts 46°
2026-04-26 11:00 41.27770 -73.29675 20844 ft 442 kts 46°
2026-04-26 11:01 41.29798 -73.26587 21272 ft 444 kts 46°
2026-04-26 11:01 41.31818 -73.23507 21681 ft 448 kts 46°
2026-04-26 11:01 41.33888 -73.20349 22054 ft 452 kts 46°
2026-04-26 11:01 41.35946 -73.17205 22476 ft 454 kts 46°
2026-04-26 11:02 41.37963 -73.13914 22812 ft 460 kts 53°
2026-04-26 11:02 41.39658 -73.10315 23131 ft 465 kts 57°
2026-04-26 11:02 41.41322 -73.06624 23502 ft 468 kts 57°
2026-04-26 11:02 41.42985 -73.02902 23847 ft 471 kts 58°
2026-04-26 11:03 41.44674 -72.99103 24141 ft 475 kts 58°
2026-04-26 11:03 41.46355 -72.95303 24476 ft 479 kts 58°
2026-04-26 11:03 41.48049 -72.91467 24802 ft 482 kts 58°
2026-04-26 11:03 41.49729 -72.87652 25121 ft 485 kts 58°
2026-04-26 11:04 41.51443 -72.83755 25352 ft 490 kts 58°
2026-04-26 11:04 41.53155 -72.79854 25753 ft 491 kts 58°
2026-04-26 11:04 41.54886 -72.75906 26017 ft 495 kts 58°
2026-04-26 11:04 41.56637 -72.71905 26408 ft 496 kts 58°
2026-04-26 11:05 41.58367 -72.67947 26591 ft 502 kts 58°
2026-04-26 11:05 41.60119 -72.63935 26934 ft 503 kts 58°
2026-04-26 11:05 41.61896 -72.59862 27186 ft 507 kts 58°
2026-04-26 11:05 41.63655 -72.55819 27480 ft 509 kts 58°
2026-04-26 11:06 41.65482 -72.51726 27782 ft 511 kts 57°
2026-04-26 11:06 41.66702 -72.49033 27940 ft 514 kts 57°
2026-04-26 11:06 41.69182 -72.43534 28213 ft 519 kts 57°
2026-04-26 11:06 41.71036 -72.39419 28564 ft 520 kts 57°
2026-04-26 11:07 41.72917 -72.35237 28789 ft 523 kts 57°
2026-04-26 11:07 41.74780 -72.31085 29025 ft 526 kts 58°
2026-04-26 11:07 41.76673 -72.26866 29269 ft 528 kts 58°
2026-04-26 11:07 41.78563 -72.22646 29455 ft 531 kts 58°
2026-04-26 11:08 41.80459 -72.18404 29746 ft 532 kts 58°
2026-04-26 11:08 41.82351 -72.14167 29876 ft 536 kts 58°
2026-04-26 11:08 41.84271 -72.09861 30162 ft 537 kts 59°
2026-04-26 11:08 41.86182 -72.05567 30420 ft 538 kts 58°
2026-04-26 11:09 41.88072 -72.01314 30804 ft 536 kts 58°
2026-04-26 11:09 41.89980 -71.97015 31146 ft 535 kts 58°
2026-04-26 11:09 41.91875 -71.92740 31439 ft 535 kts 58°
2026-04-26 11:09 41.93776 -71.88446 31778 ft 533 kts 58°
2026-04-26 11:10 41.95669 -71.84183 32079 ft 533 kts 57°
2026-04-26 11:10 41.97648 -71.80011 32483 ft 530 kts 56°
2026-04-26 11:10 41.99627 -71.75869 32624 ft 532 kts 56°
2026-04-26 11:10 42.01610 -71.71698 33018 ft 528 kts 56°
2026-04-26 11:11 42.03562 -71.67588 33228 ft 529 kts 55°
2026-04-26 11:11 42.05537 -71.63425 33528 ft 528 kts 56°
2026-04-26 11:11 42.07509 -71.59262 33798 ft 527 kts 56°
2026-04-26 11:11 42.09488 -71.55075 34052 ft 526 kts 56°
2026-04-26 11:12 42.11427 -71.50970 34250 ft 526 kts 56°
2026-04-26 11:12 42.13403 -71.46780 34447 ft 525 kts 55°
2026-04-26 11:12 42.15344 -71.42655 34706 ft 523 kts 55°
2026-04-26 11:12 42.17295 -71.38509 34800 ft 524 kts 55°
2026-04-26 11:13 42.19235 -71.34376 35099 ft 517 kts 56°
2026-04-26 11:13 42.21148 -71.30296 35126 ft 517 kts 56°
2026-04-26 11:13 42.24979 -71.22111 35131 ft 519 kts 56°
2026-04-26 11:14 42.28817 -71.13886 35135 ft 520 kts 56°
2026-04-26 11:14 42.32024 -71.06997 35137 ft 519 kts 56°
2026-04-26 11:15 42.36251 -70.97220 35149 ft 519 kts 65°
2026-04-26 11:15 42.39205 -70.88274 35137 ft 523 kts 65°
2026-04-26 11:16 42.42138 -70.79290 35144 ft 522 kts 65°
2026-04-26 11:16 42.45042 -70.70328 35148 ft 522 kts 65°
2026-04-26 11:17 42.47937 -70.61350 35151 ft 523 kts 65°
2026-04-26 11:17 42.50850 -70.52281 35142 ft 524 kts 65°
2026-04-26 11:18 42.53732 -70.43281 35142 ft 524 kts 65°
2026-04-26 11:18 42.56627 -70.34206 35145 ft 526 kts 65°
2026-04-26 11:19 42.59507 -70.25144 35135 ft 525 kts 65°
2026-04-26 11:19 42.62382 -70.16074 35129 ft 525 kts 65°
2026-04-26 11:20 42.64777 -70.08491 35132 ft 526 kts 65°
2026-04-26 11:20 42.68102 -69.97926 35134 ft 524 kts 65°
2026-04-26 11:21 42.70957 -69.88826 35133 ft 524 kts 65°
2026-04-26 11:21 42.73798 -69.79732 35136 ft 524 kts 65°
2026-04-26 11:22 42.76633 -69.70627 35144 ft 523 kts 65°
2026-04-26 11:22 42.79451 -69.61550 35132 ft 524 kts 65°
2026-04-26 11:23 42.82261 -69.52462 35137 ft 522 kts 65°
2026-04-26 11:23 42.85070 -69.43353 35145 ft 521 kts 65°
2026-04-26 11:24 42.87859 -69.34273 35142 ft 522 kts 65°
2026-04-26 11:24 42.90632 -69.25214 35131 ft 522 kts 65°
2026-04-26 11:25 42.93420 -69.16069 35129 ft 523 kts 65°
2026-04-26 11:25 42.96189 -69.06960 35130 ft 522 kts 65°
2026-04-26 11:26 42.98968 -68.97790 35140 ft 522 kts 65°
2026-04-26 11:26 43.01712 -68.88696 35140 ft 523 kts 65°
2026-04-26 11:27 43.04476 -68.79507 35141 ft 522 kts 65°
2026-04-26 11:27 43.07220 -68.70348 35143 ft 524 kts 65°
2026-04-26 11:28 43.09962 -68.61164 35137 ft 524 kts 65°
2026-04-26 11:28 43.12698 -68.51971 35138 ft 524 kts 65°
2026-04-26 11:29 43.15432 -68.42755 35146 ft 525 kts 65°
2026-04-26 11:29 43.18170 -68.33480 35137 ft 523 kts 66°
2026-04-26 11:30 43.20422 -68.25838 35135 ft 525 kts 66°
2026-04-26 11:30 43.23592 -68.15025 35132 ft 526 kts 65°
2026-04-26 11:31 43.26305 -68.05747 35131 ft 524 kts 66°
2026-04-26 11:31 43.28995 -67.96508 35133 ft 527 kts 66°
2026-04-26 11:32 43.31694 -67.87199 35133 ft 525 kts 65°
2026-04-26 11:32 43.34378 -67.77911 35140 ft 526 kts 65°
2026-04-26 11:33 43.37062 -67.68594 35137 ft 526 kts 65°
2026-04-26 11:33 43.39745 -67.59240 35138 ft 527 kts 65°
2026-04-26 11:34 43.42406 -67.49931 35139 ft 527 kts 65°
2026-04-26 11:34 43.45055 -67.40624 35140 ft 526 kts 65°
2026-04-26 11:35 43.47721 -67.31232 35132 ft 527 kts 65°
2026-04-26 11:35 43.49935 -67.23401 35131 ft 528 kts 66°
2026-04-26 11:36 43.53025 -67.12426 35129 ft 528 kts 65°
2026-04-26 11:36 43.55660 -67.03033 35133 ft 528 kts 65°
2026-04-26 11:37 43.58990 -66.94179 35141 ft 521 kts 54°
2026-04-26 11:37 43.62649 -66.85656 35133 ft 520 kts 54°
2026-04-26 11:38 43.66304 -66.77094 35135 ft 520 kts 55°
2026-04-26 11:38 43.69967 -66.68480 35131 ft 519 kts 55°
2026-04-26 11:39 43.73594 -66.59924 35131 ft 520 kts 54°
2026-04-26 11:39 43.77237 -66.51307 35131 ft 517 kts 54°
2026-04-26 11:40 43.80844 -66.42745 35130 ft 517 kts 54°
2026-04-26 11:40 43.84458 -66.34145 35132 ft 519 kts 55°
2026-04-26 11:42 43.98796 -65.99760 35119 ft 517 kts 55°
2026-04-26 11:43 44.02374 -65.91113 35122 ft 516 kts 54°
2026-04-26 11:43 44.05924 -65.82512 35128 ft 516 kts 55°
2026-04-26 11:44 44.09493 -65.73837 35124 ft 515 kts 55°
2026-04-26 11:44 44.13020 -65.65237 35123 ft 514 kts 55°
2026-04-26 11:45 44.16539 -65.56631 35123 ft 515 kts 54°
2026-04-26 11:45 44.20055 -65.48003 35119 ft 510 kts 54°
2026-04-26 11:46 44.23539 -65.39429 35117 ft 511 kts 54°
2026-04-26 11:46 44.27018 -65.30847 35108 ft 509 kts 55°
2026-04-26 11:47 44.30484 -65.22266 35109 ft 510 kts 55°
2026-04-26 11:47 44.33968 -65.13614 35108 ft 510 kts 55°
2026-04-26 11:48 44.37407 -65.05045 35107 ft 506 kts 55°
2026-04-26 11:48 44.40845 -64.96460 35111 ft 508 kts 55°
2026-04-26 11:49 44.44275 -64.87864 35107 ft 506 kts 55°
2026-04-26 11:49 44.47695 -64.79269 35105 ft 507 kts 54°
2026-04-26 11:50 44.51088 -64.70717 35109 ft 506 kts 54°
2026-04-26 11:50 44.54482 -64.62131 35106 ft 505 kts 54°
2026-04-26 11:51 44.57875 -64.53525 35104 ft 504 kts 54°
2026-04-26 11:51 44.61246 -64.44949 35100 ft 506 kts 54°
2026-04-26 11:52 44.64084 -64.37705 35101 ft 505 kts 54°
2026-04-26 11:52 44.67979 -64.27736 35089 ft 503 kts 55°
2026-04-26 11:53 44.71350 -64.19083 35090 ft 505 kts 54°
2026-04-26 11:54 44.76349 -64.06191 35085 ft 503 kts 54°
2026-04-26 11:54 44.79683 -63.97564 35073 ft 505 kts 54°
2026-04-26 11:55 44.83032 -63.88867 35062 ft 502 kts 54°
2026-04-26 11:55 44.86313 -63.80325 35074 ft 500 kts 54°
2026-04-26 11:56 44.89609 -63.71712 35069 ft 499 kts 54°
2026-04-26 11:56 44.92889 -63.63115 35071 ft 497 kts 54°
2026-04-26 11:57 44.96130 -63.54600 35067 ft 496 kts 54°
2026-04-26 11:57 44.99382 -63.46028 35066 ft 494 kts 54°
2026-04-26 11:58 45.02596 -63.37526 35061 ft 493 kts 55°
2026-04-26 11:58 45.05787 -63.29058 35039 ft 488 kts 55°
2026-04-26 11:59 45.08977 -63.20571 35048 ft 489 kts 56°
2026-04-26 11:59 45.12147 -63.12111 35058 ft 488 kts 56°
2026-04-26 12:00 45.15292 -63.03686 35068 ft 483 kts 56°
2026-04-26 12:00 45.18382 -62.95384 35034 ft 478 kts 56°
2026-04-26 12:01 45.21481 -62.87042 35155 ft 480 kts 56°
2026-04-26 12:01 45.23041 -62.82829 35047 ft 481 kts 56°
2026-04-26 12:01 45.24580 -62.78669 35045 ft 478 kts 56°
2026-04-26 12:02 45.27631 -62.70399 35041 ft 474 kts 56°
2026-04-26 12:02 45.30672 -62.62130 35019 ft 473 kts 56°
2026-04-26 12:03 45.33709 -62.53850 35023 ft 474 kts 57°
2026-04-26 12:03 45.36726 -62.45594 35038 ft 471 kts 57°
2026-04-26 12:04 45.39722 -62.37374 35026 ft 469 kts 57°
2026-04-26 12:04 45.42713 -62.29142 35021 ft 466 kts 58°
2026-04-26 12:05 45.45688 -62.20934 35035 ft 467 kts 58°
2026-04-26 12:05 45.48621 -62.12810 35024 ft 463 kts 58°
2026-04-26 12:06 45.51554 -62.04669 35030 ft 463 kts 58°
2026-04-26 12:06 45.54483 -61.96507 35041 ft 462 kts 58°
2026-04-26 12:07 45.57382 -61.88409 35036 ft 457 kts 58°
2026-04-26 12:07 45.60258 -61.80349 35015 ft 456 kts 58°
2026-04-26 12:08 45.63118 -61.72314 35017 ft 457 kts 58°
2026-04-26 12:08 45.65977 -61.64253 35018 ft 455 kts 58°
2026-04-26 12:09 45.68814 -61.56229 35006 ft 453 kts 58°
2026-04-26 12:09 45.71654 -61.48179 35002 ft 454 kts 58°
2026-04-26 12:10 45.74461 -61.40192 35007 ft 452 kts 58°
2026-04-26 12:10 45.77263 -61.32195 34994 ft 450 kts 59°
2026-04-26 12:11 45.80066 -61.24179 34984 ft 451 kts 59°
2026-04-26 12:11 45.82861 -61.16157 34986 ft 451 kts 59°
2026-04-26 12:12 45.85620 -61.08214 34965 ft 445 kts 59°
2026-04-26 12:12 45.88378 -61.00250 34975 ft 447 kts 59°
2026-04-26 12:13 45.91133 -60.92271 34978 ft 447 kts 59°
2026-04-26 12:13 45.93889 -60.84266 34960 ft 447 kts 60°
2026-04-26 12:14 45.96633 -60.76270 34965 ft 449 kts 59°
2026-04-26 12:14 45.99377 -60.68250 34985 ft 448 kts 60°
2026-04-26 12:15 46.02115 -60.60224 34958 ft 448 kts 59°
2026-04-26 12:15 46.04852 -60.52177 34956 ft 449 kts 60°
2026-04-26 12:16 46.07576 -60.44141 34953 ft 448 kts 59°
2026-04-26 12:16 46.10289 -60.36116 34957 ft 449 kts 60°
2026-04-26 12:17 46.13001 -60.28067 34965 ft 448 kts 60°
2026-04-26 12:17 46.15707 -60.20016 34951 ft 451 kts 60°
2026-04-26 12:18 46.18417 -60.11924 34972 ft 448 kts 60°
2026-04-26 12:18 46.21122 -60.03821 34947 ft 449 kts 60°
2026-04-26 12:19 46.23821 -59.95712 34953 ft 449 kts 60°
2026-04-26 12:19 46.26498 -59.87643 34935 ft 449 kts 60°
2026-04-26 12:20 46.29192 -59.79503 34939 ft 451 kts 60°
2026-04-26 12:20 46.31889 -59.71321 34926 ft 450 kts 60°
2026-04-26 12:21 46.34575 -59.63150 34922 ft 450 kts 60°
2026-04-26 12:21 46.37246 -59.55001 34912 ft 450 kts 60°
2026-04-26 12:22 46.39896 -59.46885 34916 ft 449 kts 60°
2026-04-26 12:22 46.42554 -59.38723 34899 ft 450 kts 60°
2026-04-26 12:23 46.45233 -59.30468 34889 ft 451 kts 60°
2026-04-26 12:23 46.47872 -59.22315 34894 ft 450 kts 61°
2026-04-26 12:24 46.50534 -59.14061 34888 ft 451 kts 61°
2026-04-26 12:24 46.53171 -59.05859 34870 ft 452 kts 61°
2026-04-26 12:25 46.57118 -58.93532 34883 ft 451 kts 60°
2026-04-26 12:25 46.59761 -58.85245 34891 ft 451 kts 61°
2026-04-26 12:26 46.62366 -58.77052 34886 ft 449 kts 61°
2026-04-26 12:26 46.64977 -58.68814 34880 ft 451 kts 60°
2026-04-26 12:27 46.67588 -58.60548 34881 ft 450 kts 60°
2026-04-26 12:27 46.70187 -58.52291 34859 ft 450 kts 60°
2026-04-26 12:28 46.72781 -58.44025 34875 ft 450 kts 61°
2026-04-26 12:28 46.75358 -58.35788 34860 ft 450 kts 61°
2026-04-26 12:29 46.77961 -58.27437 34850 ft 452 kts 61°
2026-04-26 12:30 46.81815 -58.15025 34821 ft 449 kts 62°
2026-04-26 12:30 46.84380 -58.06731 34832 ft 450 kts 62°
2026-04-26 12:31 46.88201 -57.94326 34821 ft 449 kts 62°
2026-04-26 12:31 46.90755 -57.85997 34819 ft 449 kts 62°
2026-04-26 12:32 46.93299 -57.77673 34819 ft 450 kts 62°
2026-04-26 12:33 46.97117 -57.65131 34816 ft 452 kts 62°
2026-04-26 12:33 46.99647 -57.56786 34812 ft 450 kts 62°
2026-04-26 12:34 47.02177 -57.48411 34806 ft 451 kts 62°
2026-04-26 12:34 47.04691 -57.40060 34814 ft 451 kts 62°
2026-04-26 12:35 47.07222 -57.31627 34809 ft 452 kts 63°
2026-04-26 12:35 47.09721 -57.23272 34800 ft 449 kts 62°
2026-04-26 12:36 47.12237 -57.14831 34818 ft 451 kts 62°
2026-04-26 12:36 47.14722 -57.06467 34807 ft 451 kts 63°
2026-04-26 12:37 47.17212 -56.98054 34814 ft 449 kts 62°
2026-04-26 12:37 47.19690 -56.89656 34801 ft 449 kts 63°
2026-04-26 12:38 47.22163 -56.81242 34790 ft 450 kts 62°
2026-04-26 12:38 47.24630 -56.72827 34793 ft 448 kts 63°
2026-04-26 12:39 47.27088 -56.64408 34783 ft 449 kts 63°
2026-04-26 12:39 47.29540 -56.55982 34775 ft 449 kts 63°
2026-04-26 12:40 47.31985 -56.47554 34770 ft 450 kts 63°
2026-04-26 12:40 47.34423 -56.39117 34762 ft 447 kts 63°
2026-04-26 12:41 47.36846 -56.30704 34766 ft 449 kts 63°
2026-04-26 12:41 47.39292 -56.22183 34766 ft 451 kts 63°
2026-04-26 12:42 47.41705 -56.13746 34768 ft 448 kts 63°
2026-04-26 12:42 47.44119 -56.05276 34753 ft 448 kts 63°
2026-04-26 12:43 47.46516 -55.96836 34766 ft 452 kts 63°
2026-04-26 12:43 47.48920 -55.88341 34731 ft 448 kts 63°
2026-04-26 12:44 47.51314 -55.79854 34735 ft 449 kts 63°
2026-04-26 12:44 47.53708 -55.71338 34721 ft 450 kts 63°
2026-04-26 12:45 47.56094 -55.62816 34714 ft 449 kts 63°
2026-04-26 12:45 47.58464 -55.54321 34721 ft 449 kts 63°
2026-04-26 12:46 47.60847 -55.45752 34704 ft 449 kts 63°
2026-04-26 12:46 47.63202 -55.37255 34689 ft 449 kts 63°
2026-04-26 12:47 47.65573 -55.28667 34694 ft 451 kts 64°
2026-04-26 12:47 47.67936 -55.20073 34680 ft 450 kts 64°
2026-04-26 12:48 47.70279 -55.11527 34707 ft 451 kts 64°
2026-04-26 12:48 47.72624 -55.02936 34699 ft 449 kts 64°
2026-04-26 12:49 47.74963 -54.94344 34690 ft 450 kts 64°
2026-04-26 12:49 47.77293 -54.85749 34683 ft 450 kts 64°
2026-04-26 12:50 47.79610 -54.77169 34670 ft 451 kts 64°
2026-04-26 12:50 47.81939 -54.68515 34665 ft 451 kts 64°
2026-04-26 12:51 47.84259 -54.59862 34663 ft 450 kts 64°
2026-04-26 12:51 47.86566 -54.51226 34661 ft 451 kts 64°
2026-04-26 12:52 47.88857 -54.42620 34646 ft 451 kts 64°
2026-04-26 12:52 47.91170 -54.33899 34629 ft 450 kts 65°
2026-04-26 12:53 47.93451 -54.25265 34618 ft 451 kts 65°
2026-04-26 12:53 47.95745 -54.16548 34619 ft 452 kts 65°
2026-04-26 12:54 47.98020 -54.07873 34631 ft 451 kts 65°
2026-04-26 12:54 48.00301 -53.99140 34641 ft 452 kts 65°
2026-04-26 12:55 48.02557 -53.90470 34648 ft 452 kts 65°
2026-04-26 12:55 48.04815 -53.81763 34651 ft 452 kts 65°
2026-04-26 12:56 48.07077 -53.73003 34640 ft 451 kts 65°
2026-04-26 12:56 48.09314 -53.64310 34635 ft 450 kts 65°
2026-04-26 12:57 48.11549 -53.55590 34638 ft 452 kts 65°
2026-04-26 12:57 48.13781 -53.46851 34637 ft 452 kts 65°
2026-04-26 12:58 48.17126 -53.33685 34640 ft 452 kts 66°
2026-04-26 12:58 48.19347 -53.24901 34641 ft 452 kts 66°
2026-04-26 12:59 48.21556 -53.16133 34636 ft 451 kts 66°
2026-04-26 12:59 48.23757 -53.07361 34633 ft 451 kts 66°
2026-04-26 13:00 48.25951 -52.98586 34622 ft 453 kts 66°
2026-04-26 13:00 48.28151 -52.89749 34619 ft 452 kts 66°
2026-04-26 13:01 48.30336 -52.80933 34610 ft 452 kts 66°
2026-04-26 13:01 48.32518 -52.72103 34611 ft 453 kts 66°
2026-04-26 13:02 48.34686 -52.63289 34612 ft 452 kts 67°
2026-04-26 13:02 48.36855 -52.54440 34592 ft 452 kts 66°
2026-04-26 13:03 48.39002 -52.45644 34588 ft 452 kts 67°
2026-04-26 13:03 48.41151 -52.36804 34592 ft 452 kts 67°
2026-04-26 13:04 48.43304 -52.27913 34585 ft 454 kts 68°
2026-04-26 13:04 48.45450 -52.19015 34576 ft 453 kts 68°
2026-04-26 13:05 48.47588 -52.10115 34576 ft 454 kts 68°
2026-04-26 13:05 48.49731 -52.01189 34579 ft 454 kts 66°
2026-04-26 13:06 48.52014 -51.92352 34576 ft 452 kts 66°
2026-04-26 13:06 48.54298 -51.83536 34580 ft 453 kts 66°
2026-04-26 13:07 48.56566 -51.74762 34580 ft 453 kts 66°
2026-04-26 13:07 48.58854 -51.65884 34579 ft 454 kts 66°
2026-04-26 13:08 48.61131 -51.57018 34569 ft 455 kts 66°
2026-04-26 13:08 48.63395 -51.48166 34574 ft 455 kts 66°
2026-04-26 13:09 48.65652 -51.39312 34569 ft 454 kts 66°
2026-04-26 13:09 48.67914 -51.30401 34564 ft 454 kts 67°
2026-04-26 13:10 48.70165 -51.21498 34562 ft 454 kts 67°
2026-04-26 13:10 48.72406 -51.12597 34554 ft 454 kts 67°
2026-04-26 13:11 48.74635 -51.03715 34556 ft 455 kts 67°
2026-04-26 13:11 48.76874 -50.94757 34539 ft 455 kts 67°
2026-04-26 13:12 48.79087 -50.85865 34529 ft 455 kts 67°
2026-04-26 13:12 48.81319 -50.76860 34534 ft 456 kts 68°
2026-04-26 13:13 48.83530 -50.67903 34535 ft 456 kts 68°
2026-04-26 13:13 48.85732 -50.58950 34530 ft 456 kts 68°
2026-04-26 13:14 48.87925 -50.49995 34527 ft 455 kts 68°
2026-04-26 13:14 48.90125 -50.40975 34515 ft 455 kts 68°
2026-04-26 13:15 48.92306 -50.31998 34518 ft 455 kts 69°
2026-04-26 13:15 48.94124 -50.24485 34519 ft 456 kts 69°
2026-04-26 13:16 48.96664 -50.13948 34511 ft 457 kts 69°
2026-04-26 13:16 48.98830 -50.04919 34513 ft 456 kts 69°
2026-04-26 13:17 49.02163 -49.91453 34512 ft 454 kts 68°
2026-04-26 13:18 49.05555 -49.77952 34501 ft 456 kts 68°
2026-04-26 13:19 49.08923 -49.64460 34503 ft 458 kts 68°
2026-04-26 13:19 49.11170 -49.55412 34500 ft 458 kts 68°
2026-04-26 13:20 49.13405 -49.46376 34498 ft 457 kts 68°
2026-04-26 13:20 49.15627 -49.37355 34483 ft 456 kts 68°
2026-04-26 13:21 49.17854 -49.28279 34495 ft 457 kts 69°
2026-04-26 13:21 49.20069 -49.19214 34491 ft 458 kts 69°
2026-04-26 13:22 49.22296 -49.10064 34479 ft 459 kts 69°
2026-04-26 13:22 49.24506 -49.00946 34472 ft 460 kts 69°
2026-04-26 13:23 49.26715 -48.91792 34465 ft 459 kts 69°
2026-04-26 13:23 49.28897 -48.82711 34467 ft 458 kts 69°
2026-04-26 13:24 49.31096 -48.73522 34466 ft 458 kts 69°
2026-04-26 13:24 49.33271 -48.64394 34461 ft 458 kts 69°
2026-04-26 13:25 49.35444 -48.55241 34454 ft 460 kts 69°
2026-04-26 13:25 49.37603 -48.46102 34457 ft 460 kts 69°
2026-04-26 13:26 49.39777 -48.36868 34456 ft 459 kts 69°
2026-04-26 13:26 49.41921 -48.27718 34465 ft 460 kts 70°
2026-04-26 13:27 49.44080 -48.18467 34457 ft 460 kts 70°
2026-04-26 13:27 49.46218 -48.09261 34455 ft 461 kts 70°
2026-04-26 13:28 49.48365 -47.99979 34453 ft 461 kts 70°
2026-04-26 13:28 49.50499 -47.90714 34455 ft 461 kts 70°
2026-04-26 13:29 49.52611 -47.81504 34451 ft 461 kts 70°
2026-04-26 13:29 49.54736 -47.72199 34445 ft 460 kts 70°
2026-04-26 13:30 49.56843 -47.62932 34438 ft 462 kts 71°
2026-04-26 13:30 49.58949 -47.53630 34430 ft 462 kts 71°
2026-04-26 13:31 49.61049 -47.44309 34429 ft 462 kts 71°
2026-04-26 13:31 49.63140 -47.34989 34429 ft 464 kts 72°
2026-04-26 13:32 49.65239 -47.25590 34427 ft 464 kts 72°
2026-04-26 13:32 49.67320 -47.16233 34421 ft 463 kts 72°
2026-04-26 13:33 49.69405 -47.06811 34426 ft 465 kts 72°
2026-04-26 13:33 49.71473 -46.97427 34430 ft 466 kts 72°
2026-04-26 13:34 49.73552 -46.87951 34425 ft 465 kts 72°
2026-04-26 13:34 49.75611 -46.78521 34425 ft 464 kts 72°
2026-04-26 13:35 49.77658 -46.69103 34424 ft 465 kts 72°
2026-04-26 13:35 49.79709 -46.59624 34421 ft 467 kts 72°
2026-04-26 13:36 49.81739 -46.50198 34412 ft 466 kts 72°
2026-04-26 13:36 49.83782 -46.40668 34410 ft 467 kts 72°
2026-04-26 13:37 49.85806 -46.31183 34411 ft 467 kts 73°
2026-04-26 13:37 49.87835 -46.21630 34410 ft 467 kts 73°
2026-04-26 13:38 49.89861 -46.12048 34407 ft 469 kts 73°
2026-04-26 13:38 49.91866 -46.02512 34407 ft 470 kts 73°
2026-04-26 13:39 49.93887 -45.92864 34406 ft 469 kts 73°
2026-04-26 13:39 49.95882 -45.83287 34397 ft 469 kts 73°
2026-04-26 13:40 49.97872 -45.73692 34402 ft 471 kts 73°
2026-04-26 13:40 49.99868 -45.64024 34409 ft 472 kts 73°
2026-04-26 13:41 50.01855 -45.54349 34412 ft 471 kts 73°
2026-04-26 13:41 50.03832 -45.44674 34415 ft 471 kts 73°
2026-04-26 13:42 50.05804 -45.34978 34411 ft 471 kts 75°
2026-04-26 13:42 50.07775 -45.25241 34414 ft 472 kts 75°
2026-04-26 13:43 50.09720 -45.15582 34411 ft 473 kts 75°
2026-04-26 13:43 50.11680 -45.05806 34408 ft 474 kts 75°
2026-04-26 13:44 50.13634 -44.95996 34416 ft 474 kts 75°
2026-04-26 13:44 50.15570 -44.86241 34417 ft 474 kts 75°
2026-04-26 13:45 50.17502 -44.76452 34427 ft 474 kts 75°
2026-04-26 13:45 50.19424 -44.66666 34433 ft 474 kts 75°
2026-04-26 13:46 50.21338 -44.56870 34428 ft 474 kts 75°
2026-04-26 13:46 50.23244 -44.47067 34428 ft 475 kts 75°
2026-04-26 13:47 50.25149 -44.37212 34427 ft 476 kts 75°
2026-04-26 13:47 50.27048 -44.27346 34436 ft 476 kts 76°
2026-04-26 13:48 50.28933 -44.17491 34438 ft 477 kts 76°
2026-04-26 13:48 50.30830 -44.07529 34442 ft 477 kts 76°
2026-04-26 13:49 50.32706 -43.97621 34440 ft 478 kts 76°
2026-04-26 13:49 50.34576 -43.87697 34439 ft 479 kts 77°
2026-04-26 13:50 50.36452 -43.77689 34443 ft 479 kts 77°
2026-04-26 13:50 50.38313 -43.67703 34442 ft 479 kts 77°
2026-04-26 13:51 50.40152 -43.57780 34448 ft 478 kts 77°
2026-04-26 13:51 50.41999 -43.47764 34449 ft 479 kts 77°
2026-04-26 13:52 50.43823 -43.37815 34456 ft 479 kts 77°
2026-04-26 13:52 50.45649 -43.27804 34456 ft 480 kts 78°
2026-04-26 13:53 50.47478 -43.17726 34461 ft 478 kts 78°